Regional Weather Roundup
Issued by NWS Sterling, VA

Home | Current Version | Previous Version | Graphics & Text | Print | Product List | Glossary On
Versions: 1 2 3 4 5 6 7 8 9 10 11 12 13 14 15 16 17 18 19 20 21 22 23 24 25 26 27
000
ASUS41 KLWX 110411
RWRLWX

REGIONAL WEATHER ROUNDUP
NATIONAL WEATHER SERVICE BALTIMORE MD/WASHINGTON DC
1100 PM EST SUN DEC 10 2017

Note: "FAIR" indicates few or no clouds below 12,000 feet
with no significant weather and/or obstructions to visibility.
 TC=TEMPERATURE CELSIUS

 * =Non NWS site. Station does not report precipitation (e.g. rain,
    snow, etc.), thunder, or fog.

DCZ001-MDZ009-015-VAZ040>042-051-053>054-110500-
WASHINGTON METRO

CITY           SKY/WX    TMP DP  RH WIND       PRES   REMARKS
WASHINGTON NAT CLOUDY    38  28  67 S8        30.06S
DULLES         CLOUDY    34  25  69 S6        30.04S
ANDREWS AFB    CLOUDY    35  26  70 S9        30.04S WCI  28
FT BELVOIR     CLOUDY    37  25  62 S3        30.05F
COLLEGE PARK*  CLOUDY    36  27  69 CALM      30.05S
LEESBURG*      CLOUDY    34  30  86 S3        30.04F
MANASSAS*      CLOUDY    34  26  72 S3        30.05F
GAITHERSBURG*  CLOUDY    35  22  58 SW5       30.03F

$$

MDZ006>007-011-014-110500-
BALTIMORE METRO

CITY           SKY/WX    TMP DP  RH WIND       PRES   REMARKS
BWI AIRPORT    CLOUDY    34  27  75 CALM      30.05R
MD SCIENCE CTR   N/A     37  25  61 MISG      30.05S
MARTIN STATE   CLOUDY    36  30  80 CALM      30.07S
ANNAPOLIS      CLOUDY    36  30  79 S5        30.05F
FORT MEADE*    CLOUDY    32  30  93 CALM      30.07F

$$

MDZ012-015-019>023-110500-
MARYLAND EASTERN SHORE

CITY           SKY/WX    TMP DP  RH WIND       PRES   REMARKS
OCEAN CITY     CLOUDY    35  30  82 W6        30.11S
SALISBURY      CLOUDY    32  29  88 SW5       30.09F
BAY BRIDGE AP* CLOUDY    37  28  70 SW8       30.06S
CAMBRIDGE*     CLOUDY    32  28  86 S5        30.09S
EASTON*        CLOUDY    36  30  77 SW5       30.11S

$$

MDZ017>025-110500-
SOUTHERN MARYLAND

CITY           SKY/WX    TMP DP  RH WIND       PRES   REMARKS
PATUXENT RIVER CLOUDY    36  28  73 SW9       30.08F WCI  29
ST INIGOES     CLOUDY    38  29  70 SW10G22   30.09S
LEONARDTOWN*   CLOUDY    36  28  75 SW6       30.10S

$$

MDZ003>005-110500-
NORTH CENTRAL MARYLAND

CITY           SKY/WX    TMP DP  RH WIND       PRES   REMARKS
FREDERICK*     CLOUDY    32  27  80 CALM      30.06F
HAGERSTOWN APT CLOUDY    35  19  52 CALM      30.01S
WESTMINSTER*   CLOUDY    34  25  69 CALM      30.01S

$$

MDZ501>502-110500-
WESTERN MARYLAND

CITY           SKY/WX    TMP DP  RH WIND       PRES   REMARKS
OAKLAND*       CLOUDY    27  14  59 W13G22    29.88S WCI  16
CUMBERLAND*    CLOUDY    34  21  60 CALM      30.04S

$$

VAZ025>031-110500-
SHENANDOAH VALLEY

CITY           SKY/WX    TMP DP  RH WIND       PRES   REMARKS
WINCHESTER*    CLOUDY    34  21  60 SW6       30.01S
FRONT ROYAL*   CLOUDY    36  21  55 CALM      30.01S
LURAY*         CLOUDY    34  23  64 SW5       30.01S
NEW MARKET*    CLOUDY    32  21  62 CALM      30.01S
STAUNTON*      PTCLDY    33  21  62 S7        30.03S
WAYNESBORO*    CLOUDY    34  19  55 SW3       30.01S

$$

WVZ021-048>050-054>055-110500-
EASTERN WEST VIRGINIA PANHANDLE

CITY           SKY/WX    TMP DP  RH WIND       PRES   REMARKS
MARTINSBURG    CLOUDY    32  21  64 CALM      30.01S
PETERSBURG*    PTCLDY    32  16  52 E8        29.99F WCI  24

$$

VAZ036>039-050-110500-
CENTRAL FOOTHILLS

CITY           SKY/WX    TMP DP  RH WIND       PRES   REMARKS
CHARLOTTESVILL CLOUDY    36  22  56 S5        30.03S
CULPEPER*      CLOUDY    37  22  56 S3        30.05F
ORANGE*        CLOUDY    34  23  64 CALM      30.05S
GORDONSVILLE*  CLOUDY    34  24  67 SW5       30.05S
WARRENTON*     CLOUDY    37  21  53 S6        30.03F

$$

VAZ055>057-110500-
NORTH AND CENTRAL PIEDMONT

CITY           SKY/WX    TMP DP  RH WIND       PRES   REMARKS
FREDERICKSBRG* CLOUDY    36  28  75 SW6       30.06F
STAFFORD*      CLOUDY    34  27  73 S5        30.09F

$$

NCZ024-NYZ072-PAZ021-071-VAZ022-071-110500-
OTHER REGIONAL OBSERVATIONS

CITY           SKY/WX    TMP DP  RH WIND       PRES   REMARKS
NEW YORK CITY  CLOUDY    36  21  54 VRB6G16   30.03S
PHILADELPHIA   CLOUDY    36  25  64 S9        30.05S WCI  29
PITTSBURGH     CLOUDY    33  18  53 SW9       29.96F WCI  25
ROANOKE        CLEAR     35  17  47 W9        30.09R WCI  28
RICHMOND       CLOUDY    34  28  79 S9        30.10F WCI  27
RALEIGH        CLEAR     32  25  75 SW6       30.14F

$$

ANZ530>537-110500-
MARINE OBSERVATIONS

STATION/POSITION TIME  TEMP    WIND        PRES
                       AIR SEA DIR/SP/G
                 (UTC) (F)     (DEG/KT/KT) (MB)
THOMAS PT LIGHT  0400   38 47  220/ 14/ 17   N/A
BALT KEY BRIDGE  0336   36     200/  7/  9 1017.7R
COVE POINT       0336   37     230/ 13/ 17 1019.0F
LEWISETTA        0336   37 44  240/ 11/ 13 1019.3S
SOLOMONS ISLAND  0336   39 49  220/ 13/ 19 1018.4F
PINEY POINT      0348          230/ 11/ 14   N/A

$$





USA.gov is the U.S. government's official web portal to all federal, state and local government web resources and services.